STARLINK-32871, 62924

Orbit data source: Space-Track

STARLINK-32871, 62924 is a payload satellite owned by SpaceX/Seattle (US) in LEO that was launched on Sat, 08 Feb 2025 UTC via an FALCON 9 launch vehicle from the Air Force Eastern Test Range (AFETR). Payload-class satellites include a variety of spacecraft equipped with specific instruments for various scientific and technological missions. These include communications satellites like Starlink; space stations such as the ISS; scientific satellites like the Hubble; Earth observation satellites from companies like Planet Labs, Umbra, and HawkEye 360; GPS; miniature CubeSats for education and research; and military/defense satellites.

Loading next visibility...
Identifier
62924, 2025-027T
Orbit
LEO
Last TLE update
7 hours ago
Origin
Manufacturer
SpaceX/Seattle
Mission
Operational Commercial Communications
Bus & Motor
STARLINK V2M, Unknown motor
Mass
730 kg wet, ~700 kg dry
Launch date (UTC)
2025-02-08 (3 months ago)
Launch vehicle
FALCON 9
Launch site
Air Force Eastern Test Range (AFETR)
Object type
Payload
Rocket body
Debris
Shape & HBR
Box + 2 Pan, 29 m
Radar Cross Section
33.884 m², Large (>1 m²)

Expand to show TLE details & history

TLE from 7 hours ago
0 STARLINK-32871
1 62924U 25027T   25129.12861780  .00000739  00000-0  36360-4 0  9992
2 62924  43.0008  48.8646 0000628 308.4339  51.6456 15.27573373 14951
Epoch: 2025-05-09T03:05Z
Definitive object data (Epoch: 2025-05-09T03:05:12.577Z)
Latitude
-0.00005°
Longitude
135.37294°
Altitude
482.577 km
Speed
7.626 km/s
True Right ascension
03h 15m 27s
True Declination
0° 00' 00"
Sunlit
Object was in daylight at TLE epoch
Visualization TLE readout
Latitude
40.88799°
Longitude
-158.75632°
Altitude
485.958 km
Speed
7.628 km/s
Apparent Right ascension
06h 46m 15s
Apparent Declination
2° 20' 09"
Sunlit
Object is in daylight
Visualization observer readout
Local Sidereal Time
17:50:18
Azimuth
339.714° N
Elevation
-45.846°
Doppler factor
1
Orbital elements
Apogee altitude
485.445 km
Perigee altitude
484.583 km
Semi-major axis
6,863.151 km
Eccentricity
0.0000628
Inclination
43.0008°
RAAN
48.8646°
Arg. of periapsis
308.4339°
True anomaly
51.65124°
Mean anomaly
51.6456°
Eccentric anomaly
51.64842°
Mean motion
3.81731 °/min
BSTAR
0.00003636
Orbital period
94.31 mins
Loading maneuver chart data...
Loading SW <> Apogee altitude chart data...
Loading historical data...
Loading historical data...
Loading historical data...
Loading historical data...
Loading historical data...
Loading historical data...
Loading historical data...

STARLINK-32871 Visibility forecast

Observer location: undefined°, undefined°

Span
Click to sort rows by Start time (UTC) header in descending order
Start Az.
Max El. time (UTC)
Max El. Az.
Max El.
End time (UTC)
End Az.
6 mins2025-05-09 22:07:56.010Z226.565° WSW2025-05-09 22:10:56.010Z163.826° S36.68°2025-05-09 22:13:56.010Z82.124° E
5 mins2025-05-09 23:47:56.010Z276.636° WNW2025-05-09 23:49:56.010Z340.212° N40.714°2025-05-09 23:52:56.010Z68.5° E
6 mins2025-05-10 01:26:56.010Z294.449° NW2025-05-10 01:28:56.010Z342.612° N39.212°2025-05-10 01:32:56.010Z88.472° E
5 mins2025-05-10 03:05:56.010Z276.46° WNW2025-05-10 03:07:56.010Z226.943° WSW38.243°2025-05-10 03:10:56.010Z131.978° SE
|